Time,TemperatureF,DewpointF,PressureIn,WindDirection,WindDirectionDegrees,WindSpeedMPH,WindSpeedGustMPH,Humidity,HourlyPrecipIn,Conditions,Clouds,dailyrainin,SoftwareType,DateUTC
2013-07-25 00:02:00,58.0,49.0,30.37,NW,304,4.0,5.0,72,0.00,,,0.00,,2013-07-25 06:02:00,
2013-07-25 00:12:00,58.0,49.0,30.37,NW,304,4.0,5.0,72,0.00,,,0.00,,2013-07-25 06:12:00,
2013-07-25 00:22:00,58.0,48.0,30.37,North,360,5.0,7.0,69,0.00,,,0.00,,2013-07-25 06:22:00,
2013-07-25 00:32:00,58.0,48.0,30.38,NNE,25,3.0,8.0,69,0.00,,,0.00,,2013-07-25 06:32:00,
2013-07-25 00:42:00,58.0,48.0,30.38,NNE,25,3.0,8.0,69,0.00,,,0.00,,2013-07-25 06:42:00,
2013-07-25 00:52:00,58.0,49.0,30.37,West,273,0.0,5.0,71,0.00,,,0.00,,2013-07-25 06:52:00,
2013-07-25 01:02:00,58.0,49.0,30.36,West,272,0.0,4.0,72,0.00,,,0.00,,2013-07-25 07:02:00,
2013-07-25 01:12:00,58.0,49.0,30.36,West,272,0.0,4.0,72,0.00,,,0.00,,2013-07-25 07:12:00,
2013-07-25 01:22:00,58.0,49.0,30.35,WSW,244,4.0,7.0,73,0.00,,,0.00,,2013-07-25 07:22:00,
2013-07-25 01:32:00,59.0,48.0,30.35,West,263,5.0,10.0,68,0.00,,,0.00,,2013-07-25 07:32:00,
2013-07-25 01:43:00,59.0,48.0,30.35,West,263,5.0,10.0,68,0.00,,,0.00,,2013-07-25 07:43:00,
2013-07-25 01:53:00,58.0,49.0,30.34,SW,227,5.0,9.0,71,0.00,,,0.00,,2013-07-25 07:53:00,
2013-07-25 02:02:00,58.0,49.0,30.33,WSW,242,7.0,11.0,72,0.00,,,0.00,,2013-07-25 08:02:00,
2013-07-25 02:12:00,58.0,49.0,30.33,WSW,242,7.0,11.0,72,0.00,,,0.00,,2013-07-25 08:12:00,
2013-07-25 02:22:00,58.0,50.0,30.33,SSW,212,7.0,13.0,74,0.00,,,0.00,,2013-07-25 08:22:00,
2013-07-25 02:32:00,57.0,50.0,30.32,SSW,202,7.0,11.0,76,0.00,,,0.00,,2013-07-25 08:32:00,
2013-07-25 02:44:00,57.0,50.0,30.32,SSW,202,7.0,11.0,76,0.00,,,0.00,,2013-07-25 08:44:00,
2013-07-25 02:52:00,57.0,50.0,30.32,SW,226,8.0,12.0,76,0.00,,,0.00,,2013-07-25 08:52:00,
2013-07-25 03:02:00,57.0,50.0,30.33,SW,235,11.0,15.0,76,0.00,,,0.00,,2013-07-25 09:02:00,
2013-07-25 03:12:00,57.0,50.0,30.33,SW,235,11.0,15.0,76,0.00,,,0.00,,2013-07-25 09:12:00,
2013-07-25 03:22:00,57.0,50.0,30.35,West,262,2.0,14.0,78,0.00,,,0.00,,2013-07-25 09:22:00,
2013-07-25 03:33:00,57.0,50.0,30.35,West,273,0.0,7.0,77,0.01,,,0.01,,2013-07-25 09:33:00,
2013-07-25 03:43:00,57.0,50.0,30.35,West,273,0.0,7.0,77,0.01,,,0.01,,2013-07-25 09:43:00,
2013-07-25 03:53:00,57.0,51.0,30.34,West,260,3.0,10.0,80,0.02,,,0.02,,2013-07-25 09:53:00,
2013-07-25 04:02:00,56.0,51.0,30.35,WSW,250,5.0,9.0,83,0.03,,,0.03,,2013-07-25 10:02:00,
2013-07-25 04:12:00,56.0,51.0,30.35,WSW,250,5.0,9.0,83,0.03,,,0.03,,2013-07-25 10:12:00,
2013-07-25 04:22:00,55.0,50.0,30.35,SW,236,6.0,9.0,84,0.03,,,0.03,,2013-07-25 10:22:00,
2013-07-25 04:32:00,55.0,51.0,30.34,SSW,193,5.0,12.0,86,0.03,,,0.04,,2013-07-25 10:32:00,
2013-07-25 04:42:00,55.0,51.0,30.34,SSW,193,5.0,12.0,86,0.03,,,0.04,,2013-07-25 10:42:00,
2013-07-25 04:53:00,54.0,50.0,30.32,SW,221,8.0,12.0,86,0.02,,,0.04,,2013-07-25 10:53:00,
2013-07-25 05:02:00,54.0,50.0,30.32,SW,219,7.0,12.0,87,0.01,,,0.04,,2013-07-25 11:02:00,
2013-07-25 05:12:00,54.0,50.0,30.32,SW,219,7.0,12.0,87,0.01,,,0.04,,2013-07-25 11:12:00,
2013-07-25 05:22:00,54.0,51.0,30.33,SW,234,4.0,11.0,88,0.01,,,0.04,,2013-07-25 11:22:00,
2013-07-25 05:32:00,54.0,51.0,30.33,SW,236,4.0,10.0,88,0.00,,,0.04,,2013-07-25 11:32:00,
2013-07-25 05:43:00,54.0,51.0,30.33,SW,236,4.0,10.0,88,0.00,,,0.04,,2013-07-25 11:43:00,
2013-07-25 05:52:00,54.0,50.0,30.32,SW,233,8.0,12.0,87,0.00,,,0.04,,2013-07-25 11:52:00,
2013-07-25 06:02:00,54.0,50.0,30.33,SW,230,8.0,13.0,86,0.00,,,0.04,,2013-07-25 12:02:00,
2013-07-25 06:12:00,54.0,50.0,30.33,SW,230,8.0,13.0,86,0.00,,,0.04,,2013-07-25 12:12:00,
2013-07-25 06:22:00,54.0,49.0,30.33,SSW,212,8.0,12.0,84,0.00,,,0.04,,2013-07-25 12:22:00,
2013-07-25 06:32:00,54.0,49.0,30.34,SSW,210,9.0,13.0,83,0.00,,,0.04,,2013-07-25 12:32:00,
2013-07-25 06:45:00,54.0,49.0,30.34,SSW,210,9.0,13.0,83,0.00,,,0.04,,2013-07-25 12:45:00,
2013-07-25 06:53:00,54.0,48.0,30.35,SW,230,6.0,13.0,81,0.00,,,0.04,,2013-07-25 12:53:00,
2013-07-25 07:02:00,54.0,48.0,30.35,SW,223,5.0,12.0,81,0.00,,,0.04,,2013-07-25 13:02:00,
2013-07-25 07:12:00,54.0,48.0,30.35,SW,223,5.0,12.0,81,0.00,,,0.04,,2013-07-25 13:12:00,
2013-07-25 07:22:00,55.0,49.0,30.36,SSW,195,4.0,9.0,81,0.00,,,0.04,,2013-07-25 13:22:00,
2013-07-25 07:33:00,57.0,50.0,30.35,SW,215,6.0,10.0,77,0.00,,,0.04,,2013-07-25 13:33:00,
2013-07-25 07:42:00,57.0,50.0,30.35,SW,215,6.0,10.0,77,0.00,,,0.04,,2013-07-25 13:42:00,
2013-07-25 07:53:00,58.0,50.0,30.35,SW,236,8.0,12.0,75,0.00,,,0.04,,2013-07-25 13:53:00,
2013-07-25 08:02:00,59.0,50.0,30.36,SSW,194,9.0,17.0,72,0.00,,,0.04,,2013-07-25 14:02:00,
2013-07-25 08:12:00,59.0,50.0,30.36,SSW,194,9.0,17.0,72,0.00,,,0.04,,2013-07-25 14:12:00,
2013-07-25 08:22:00,60.0,49.0,30.35,SW,235,10.0,15.0,68,0.00,,,0.04,,2013-07-25 14:22:00,
2013-07-25 08:33:00,62.0,50.0,30.37,SW,223,10.0,15.0,65,0.00,,,0.04,,2013-07-25 14:33:00,
2013-07-25 08:43:00,62.0,50.0,30.37,SW,223,10.0,15.0,65,0.00,,,0.04,,2013-07-25 14:43:00,
2013-07-25 08:53:00,63.0,51.0,30.36,SW,233,8.0,13.0,65,0.00,,,0.04,,2013-07-25 14:53:00,
2013-07-25 09:02:00,65.0,51.0,30.37,SW,227,7.0,12.0,60,0.00,,,0.04,,2013-07-25 15:02:00,
2013-07-25 09:12:00,65.0,51.0,30.37,SW,227,7.0,12.0,60,0.00,,,0.04,,2013-07-25 15:12:00,
2013-07-25 09:22:00,65.0,52.0,30.37,SW,221,6.0,13.0,63,0.00,,,0.04,,2013-07-25 15:22:00,
2013-07-25 09:32:00,66.0,51.0,30.37,South,177,6.0,12.0,59,0.00,,,0.04,,2013-07-25 15:32:00,
2013-07-25 09:44:00,66.0,51.0,30.37,South,177,6.0,12.0,59,0.00,,,0.04,,2013-07-25 15:44:00,
2013-07-25 09:53:00,66.0,51.0,30.37,South,190,1.0,11.0,59,0.00,,,0.04,,2013-07-25 15:53:00,
2013-07-25 10:02:00,69.0,52.0,30.39,East,101,2.0,6.0,54,0.00,,,0.04,,2013-07-25 16:02:00,
2013-07-25 10:12:00,69.0,52.0,30.39,East,101,2.0,6.0,54,0.00,,,0.04,,2013-07-25 16:12:00,
2013-07-25 10:22:00,69.0,47.0,30.40,ENE,59,9.0,14.0,46,0.00,,,0.04,,2013-07-25 16:22:00,
2013-07-25 10:33:00,66.0,49.0,30.39,NE,45,4.0,13.0,54,0.00,,,0.04,,2013-07-25 16:33:00,
2013-07-25 10:45:00,66.0,49.0,30.39,NE,45,4.0,13.0,54,0.00,,,0.04,,2013-07-25 16:45:00,
2013-07-25 10:53:00,66.0,50.0,30.39,ENE,61,6.0,10.0,57,0.00,,,0.04,,2013-07-25 16:53:00,
2013-07-25 11:02:00,65.0,51.0,30.39,East,88,5.0,12.0,60,0.00,,,0.04,,2013-07-25 17:02:00,
2013-07-25 11:12:00,65.0,51.0,30.39,East,88,5.0,12.0,60,0.00,,,0.04,,2013-07-25 17:12:00,
2013-07-25 11:22:00,67.0,51.0,30.40,ENE,59,5.0,15.0,57,0.00,,,0.04,,2013-07-25 17:22:00,
2013-07-25 11:32:00,66.0,50.0,30.40,NE,42,5.0,12.0,56,0.00,,,0.04,,2013-07-25 17:32:00,
2013-07-25 11:43:00,66.0,50.0,30.40,NE,42,5.0,12.0,56,0.00,,,0.04,,2013-07-25 17:43:00,
2013-07-25 11:53:00,66.0,51.0,30.40,East,80,2.0,5.0,58,0.00,,,0.04,,2013-07-25 17:53:00,
2013-07-25 12:02:00,63.0,50.0,30.42,NNE,31,0.0,15.0,63,0.03,,,0.07,,2013-07-25 18:02:00,
2013-07-25 12:12:00,63.0,50.0,30.42,NNE,31,0.0,15.0,63,0.03,,,0.07,,2013-07-25 18:12:00,
2013-07-25 16:43:00,54.0,48.0,30.46,WSW,244,7.0,12.0,81,0.10,,,1.78,,2013-07-25 22:43:00,
2013-07-25 16:52:00,56.0,49.0,30.46,WSW,245,6.0,10.0,78,0.06,,,1.78,,2013-07-25 22:52:00,
2013-07-25 17:02:00,55.0,49.0,30.45,SW,236,6.0,10.0,80,0.03,,,1.78,,2013-07-25 23:02:00,
2013-07-25 17:12:00,55.0,49.0,30.45,SW,236,6.0,10.0,80,0.03,,,1.78,,2013-07-25 23:12:00,
2013-07-25 17:22:00,56.0,49.0,30.45,SW,225,7.0,10.0,78,0.01,,,1.78,,2013-07-25 23:22:00,
2013-07-25 17:32:00,56.0,49.0,30.44,WSW,247,7.0,10.0,76,0.00,,,1.78,,2013-07-25 23:32:00,
2013-07-25 17:43:00,56.0,49.0,30.44,WSW,247,7.0,10.0,76,0.00,,,1.78,,2013-07-25 23:43:00,
2013-07-25 18:02:00,56.0,49.0,30.44,West,259,5.0,7.0,78,0.00,,,1.78,,2013-07-26 00:02:00,
2013-07-25 18:12:00,56.0,49.0,30.44,West,259,5.0,7.0,78,0.00,,,1.78,,2013-07-26 00:12:00,
2013-07-25 18:22:00,56.0,49.0,30.45,South,176,6.0,11.0,76,0.00,,,1.78,,2013-07-26 00:22:00,
2013-07-25 18:32:00,56.0,48.0,30.45,NW,305,6.0,12.0,74,0.00,,,1.78,,2013-07-26 00:32:00,
2013-07-25 18:43:00,56.0,48.0,30.45,NW,305,6.0,12.0,74,0.00,,,1.78,,2013-07-26 00:43:00,
2013-07-25 18:52:00,55.0,48.0,30.47,NE,46,7.0,13.0,78,0.01,,,1.79,,2013-07-26 00:52:00,
2013-07-25 19:02:00,54.0,48.0,30.48,NNE,17,7.0,15.0,81,0.01,,,1.79,,2013-07-26 01:02:00,
2013-07-25 19:12:00,54.0,48.0,30.48,NNE,17,7.0,15.0,81,0.01,,,1.79,,2013-07-26 01:12:00,
2013-07-25 19:22:00,54.0,48.0,30.49,NNE,15,4.0,10.0,79,0.01,,,1.79,,2013-07-26 01:22:00,
2013-07-25 19:32:00,54.0,48.0,30.48,NE,38,0.0,13.0,80,0.01,,,1.79,,2013-07-26 01:32:00,
2013-07-25 19:43:00,54.0,48.0,30.48,NE,38,0.0,13.0,80,0.01,,,1.79,,2013-07-26 01:43:00,
2013-07-25 19:52:00,53.0,47.0,30.47,NNE,24,4.0,6.0,79,0.00,,,1.79,,2013-07-26 01:52:00,
2013-07-25 20:02:00,53.0,46.0,30.47,North,5,2.0,4.0,76,0.00,,,1.79,,2013-07-26 02:02:00,
2013-07-25 20:12:00,53.0,46.0,30.47,North,5,2.0,4.0,76,0.00,,,1.79,,2013-07-26 02:12:00,
2013-07-25 20:22:00,53.0,46.0,30.48,West,273,10.0,15.0,78,0.00,,,1.79,,2013-07-26 02:22:00,
2013-07-25 20:32:00,53.0,46.0,30.49,West,273,9.0,14.0,76,0.00,,,1.79,,2013-07-26 02:32:00,
2013-07-25 20:43:00,53.0,46.0,30.49,West,273,9.0,14.0,76,0.00,,,1.79,,2013-07-26 02:43:00,
2013-07-25 20:52:00,54.0,48.0,30.50,NW,304,12.0,17.0,79,0.01,,,1.80,,2013-07-26 02:52:00,
2013-07-25 21:02:00,54.0,48.0,30.49,West,279,12.0,17.0,80,0.01,,,1.80,,2013-07-26 03:02:00,
2013-07-25 21:12:00,54.0,48.0,30.49,West,279,12.0,17.0,80,0.01,,,1.80,,2013-07-26 03:12:00,
2013-07-25 21:22:00,55.0,48.0,30.51,West,277,10.0,18.0,78,0.02,,,1.81,,2013-07-26 03:22:00,
2013-07-25 21:32:00,55.0,47.0,30.51,West,273,11.0,17.0,74,0.02,,,1.81,,2013-07-26 03:32:00,
2013-07-25 21:43:00,55.0,47.0,30.51,West,273,11.0,17.0,74,0.02,,,1.81,,2013-07-26 03:43:00,
2013-07-25 21:53:00,53.0,47.0,30.47,South,178,2.0,14.0,80,0.01,,,1.81,,2013-07-26 03:53:00,
2013-07-25 22:02:00,52.0,47.0,30.47,WSW,249,9.0,13.0,83,0.01,,,1.81,,2013-07-26 04:02:00,
2013-07-25 22:12:00,52.0,47.0,30.47,WSW,249,9.0,13.0,83,0.01,,,1.81,,2013-07-26 04:12:00,
2013-07-25 22:22:00,53.0,47.0,30.50,North,355,5.0,11.0,80,0.00,,,1.81,,2013-07-26 04:22:00,
2013-07-25 22:32:00,54.0,47.0,30.49,North,355,2.0,4.0,78,0.00,,,1.81,,2013-07-26 04:32:00,
2013-07-25 22:42:00,54.0,47.0,30.49,North,355,2.0,4.0,78,0.00,,,1.81,,2013-07-26 04:42:00,
2013-07-25 22:53:00,52.0,46.0,30.50,North,355,0.0,3.0,81,0.00,,,1.81,,2013-07-26 04:53:00,
2013-07-25 23:02:00,51.0,46.0,30.50,South,187,4.0,7.0,83,0.00,,,1.81,,2013-07-26 05:02:00,
2013-07-25 23:12:00,51.0,46.0,30.50,South,187,4.0,7.0,83,0.00,,,1.81,,2013-07-26 05:12:00,
2013-07-25 23:22:00,51.0,45.0,30.51,SSW,204,1.0,4.0,81,0.00,,,1.81,,2013-07-26 05:22:00,
2013-07-25 23:32:00,51.0,45.0,30.52,SSW,204,0.0,2.0,81,0.00,,,1.81,,2013-07-26 05:32:00,
2013-07-25 23:43:00,51.0,45.0,30.52,SSW,204,0.0,2.0,81,0.00,,,1.81,,2013-07-26 05:43:00,
2013-07-25 23:52:00,51.0,46.0,30.51,WSW,251,2.0,5.0,84,0.00,,,1.81,,2013-07-26 05:52:00,